Regional Weather Roundup
Issued by NWS

Home | Current Version | Previous Version | Text Only | Print | Product List | Glossary On
Versions: 1 2 3 4 5 6 7 8 9 10 11 12 13 14 15 16 17 18 19 20 21 22 23 24 25 26 27 28 29 30 31 32 33 34 35 36 37 38 39 40 41 42 43 44 45 46 47 48 49 50
000
ASUS43 KLSX 051507
RWRMO

WEATHER SUMMARY FOR MISSOURI
NATIONAL WEATHER SERVICE SPRINGFIELD MO
1000 AM CDT TUE MAY 05 2015

NOTE: "FAIR" INDICATES FEW OR NO CLOUDS BELOW 12,000 FEET WITH NO
       SIGNIFICANT WEATHER AND/OR OBSTRUCTIONS TO VISIBILITY.
       CURRENT SKY AND/OR WEATHER CONDITIONS ARE NOT AVAILABLE FOR
       CHILLICOTHE AND FARMINGTON.

MOZ001>031-035>038-043-044-053-054-051600-
...NORTHERN AND WESTERN MISSOURI...

CITY           SKY/WX    TMP DP  RH WIND       PRES   REMARKS
KANSAS CTY INT MOSUNNY   70  62  76 S10       30.11S
KANSAS C DTWN  MOSUNNY   73  61  65 S8        30.10S
LEE`S SUMMIT   MOSUNNY   72  58  61 S14       30.13R
ST JOSEPH      PTSUNNY   66  61  84 SE6       30.10F
CHILLICOTHE      N/A     67  62  84 E6        30.15R
KIRKSVILLE     SUNNY     71  65  81 CALM      30.16S

$$
MOZ066>068-077>081-088>096-101>105-051600-
...SOUTHWEST MISSOURI...

CITY           SKY/WX    TMP DP  RH WIND       PRES   REMARKS
SPRINGFIELD    SUNNY     73  60  63 S16       30.15S
JOPLIN         MOSUNNY   73  61  65 SE9       30.13S

$$
MOZ032>034-039>042-045>050-055>058-069>072-051600-
...CENTRAL MISSOURI...

CITY           SKY/WX    TMP DP  RH WIND       PRES   REMARKS
COLUMBIA       SUNNY     74  60  61 S9        30.17S
JEFFERSON CITY SUNNY     75  57  53 S7        30.16F
ROLLA          SUNNY     74  60  61 S13       30.18F
SEDALIA        SUNNY     76  59  55 S10       30.16S
WARRENSBURG    SUNNY     73  59  60 S9        30.13S
OSAGE BEACH    MOSUNNY  N/A N/A N/A S9        30.16S

$$
MOZ051-052-059>065-051600-
...EAST CENTRAL MISSOURI...

CITY           SKY/WX    TMP DP  RH WIND       PRES   REMARKS
ST LOUIS INTL  MOSUNNY   77  57  50 SW12      30.20R
SPIRIT OF STL  MOSUNNY   77  58  51 SW6       30.18S
ST CHARLES     MOSUNNY   77  56  48 W13       30.18S

$$
MOZ072>076-082>087-097>100-106>115-051600-
...SOUTH CENTRAL AND SOUTHEAST MISSOURI...

CITY           SKY/WX    TMP DP  RH WIND       PRES   REMARKS
CAPE GIRARDEAU SUNNY     75  59  57 VRB5      30.23S
FARMINGTON     MOSUNNY   72  55  56 S6        30.26S
POPLAR BLUFF   SUNNY     74  59  59 SW8       30.21S
WEST PLAINS    CLOUDY    71  60  68 SW9       30.23R

$$


USA.gov is the U.S. government's official web portal to all federal, state and local government web resources and services.